SCP
0 0 0 0 0 0 0 0 0 0 0 0 0 0 0 0 0 0 0 0 0 0 -0 0 0 0 0 0 0 0 0 0 0 0 0 0 -0 -0 0 -0 -0 0 0 0 0 0 0 0 0 0 0 0 0 -0
0 0 0 0 0 0 0 0 0 0 0 0 0 0 0 0 0 0 0 0 0 0 -0 0 0 0 0 0 0 0 0 0 0 0 0 0 0 0 -0 0 0 0 -0 0 0 0 0 0 0 0 0 -0 -0 0
0 0 0 0 0 0 0 0 0 0 0 0 0 0 0 0 0 0 0 0 0 0 0 -0 0 0 0 0 0 0 0 0 0 0 -0 0 0 0 0 -0 0 0 -0 0 -0 -0 0 -0 0 0 0 0 0 0
0 0 0 0 0 0 0 0 0 0 0 0 0 0 0 0 0 0 0 0 0 0 0 0 0 0 0 0 0 0 0 0 0 0 0 -0 -0 -0 0 0 0 0 -0 -0 0 0 0 0 0 0 0 0 -0 0
0 0 0 0 0 0 0 0 0 0 0 0 0 0 0 0 0 0 0 0 0 0 0 0 0 0 0 0 0 0 0 0 0 0 0 -0 -0 -0 0 -0 0 0 -0 0 -0 -0 0 0 0 0 0 0 0 0
0 0 0 0 0 0 0 0 0 0 0 0 0 0 0 0 0 0 0 0 0 0 0 0 0 0 0 0 0 0 0 0 0 0 0 0 0 -0 -0 0 -0 0 -0 -0 0 0 0 0 0 0 0 0 0 0
0 0 0 0 0 0 0 0 0 0 0 0 0 0 0 0 0 0 0 0 0 0 0 0 0 0 0 0 0 0 0 0 0 0 0 0 0 0 -0 -0 -0 -0 -0 -0 -0 -0 0 0 0 0 0 0 0 0
0 0 0 0 0 0 0 0 0 0 0 0 0 0 0 0 0 0 0 0 0 0 0 0 0 0 0 0 0 0 0 0 0 0 0 0 0 0 -0 0 -0 -0 -0 -0 -0 -0 -0 -0 -0 -0 -0 0 0 0
0 0 0 0 0 0 0 0 0 0 0 0 0 0 0 0 0 0 0 0 0 0 0 0 0 0 0 0 0 0 0 0 0 0 0 0 0 -0 -0 -0 -0 -0 -0 -0 -0 -0 -0 -0 -0 -0 -0 -0 0 0
0 0 0 0 0 0 0 0 0 0 0 0 0 0 0 0 0 0 0 0 0 0 0 0 0 0 0 0 0 0 0 0 0 0 0 0 0 0 0 -0 0 -0 -0 -0 -0 -0 -0 0 -0 -0 0 0 0 0
0 0 0 0 0 0 0 0 0 0 0 0 0 0 0 0 0 0 0 0 0 0 0 0 0 0 0 0 0 0 0 0 0 0 0 0 0 0 0 -0 0 0 -0 -0 -0 -0 -0 -0 0 0 0 0 0 0
0 0 0 0 0 0 0 0 0 0 0 0 0 0 0 0 0 0 0 0 0 0 0 0 0 0 0 0 0 0 0 0 0 0 0 0 0 0 0 0 0 0 -0 -0 0 0 0 0 0 0 0 0 0 0
0 0 0 0 0 0 0 0 0 0 0 0 0 0 0 0 0 0 0 0 0 0 0 0 0 0 0 0 0 0 0 0 0 0 0 0 0 0 0 0 0 0 0 0 0 0 0 0 0 0 0 0 0 0
0 0 0 0 0 0 0 0 0 0 0 0 0 0 0 0 0 0 0 0 0 0 0 0 0 0 0 0 0 0 0 0 0 0 0 0 0 0 0 0 0 0 0 0 0 0 0 0 0 0 0 0 0 0
0 0 0 0 0 0 0 0 0 0 0 0 0 0 0 0 0 0 0 0 0 0 0 0 0 0 0 0 0 0 0 0 0 0 0 0 0 0 0 0 0 0 0 0 0 0 0 0 0 0 0 0 0 0
0 0 0 0 0 0 0 0 0 0 0 0 0 0 0 0 0 0 0 0 0 0 0 -0 0 0 0 0 0 0 0 0 0 0 0 0 0 0 0 0 0 0 0 0 0 0 0 0 0 0 0 0 0 0
0 0 0 0 0 0 0 0 0 0 0 0 0 0 -0 -0 0 0 0 0 -0 0 0 0 0 0 0 0 0 0 0 0 0 0 0 0 0 0 0 0 0 0 0 0 0 0 0 0 0 0 0 0 0 0
0 0 0 0 0 0 0 0 0 0 0 0 0 0 0 0 -0 0 0 0 0 0 0 0 0 0 0 0 0 -0 0 0 0 0 0 0 0 0 0 0 0 0 0 0 0 0 0 0 0 0 0 0 0 0
0 0 0 0 0 -0 -0 0 0 0 0 0 0 0 -0 -0 0 0 0 0 0 -0 -0 0 0 -0 0 0 0 0 0 0 0 0 0 0 0 0 0 0 0 0 0 0 0 0 0 0 0 0 0 0 0 0
0 0 0 0 0 0 -0 -0 -0 0 0 0 0 0 0 0 -0 -0 -0 0 0 -0 0 0 0 0 0 0 0 0 0 0 0 0 0 0 0 0 0 0 0 0 0 0 0 0 0 0 0 0 0 0 0 0
0 0 0 0 0 0 0 0 0 0 0 0 0 -0 0 0 0 0 -0 0 0 0 0 -0 0 0 0 0 0 0 0 0 0 0 0 0 0 -0 0 0 0 0 0 0 0 0 0 0 0 0 0 0 0 0
0 0 0 0 0 0 0 0 0 0 0 0 0 0 0 0 0 0 0 0 0 0 0 0 0 0 0 0 0 0 0 0 0 -0 0 0 0 0 0 0 0 0 0 0 0 0 0 0 0 0 0 0 -0 -0
0 0 0 0 0 0 0 0 0 0 0 0 0 0 0 0 0 0 0 0 0 0 0 0 0 0 0 0 0 0 0 0 -0 -0 0 0 0 0 0 0 0 0 0 0 0 0 0 0 0 0 -0 -0 -0 -0
0 0 0 0 0 0 0 0 0 0 0 0 0 0 0 0 0 0 0 0 0 0 0 0 -0 0 0 0 0 0 0 0 0 0 0 0 0 0 0 0 0 0 0 0 0 0 0 0 0 0 0 0 0 0
0 0 0 0 0 0 0 0 0 0 0 0 0 0 0 0 0 0 -0 0 0 0 0 0 0 0 0 0 0 0 0 0 -0 -0 0 0 0 0 0 0 0 0 0 0 0 0 0 0 0 0 0 0 0 0
0 0 0 0 0 0 0 0 0 0 0 0 0 0 0 0 0 0 0 0 0 0 0 0 0 0 0 0 0 0 0 0 0 0 0 0 0 0 0 0 0 0 0 0 0 0 0 0 0 0 0 0 0 0
0 0 0 0 0 0 0 0 0 0 0 0 0 0 0 0 0 0 0 0 0 0 0 0 0 0 0 0 0 0 0 0 0 0 0 0 0 0 0 0 0 0 0 0 0 0 0 0 0 0 0 0 0 0
0 0 0 0 0 0 0 0 0 0 0 0 0 -0 -0 0 0 0 0 0 0 0 0 -0 0 0 0 0 -0 -0 -0 0 0 -0 0 0 0 0 0 0 0 0 0 0 0 0 0 0 0 0 0 0 0 0
0 0 0 0 0 0 0 0 0 -0 -0 0 0 0 0 -0 -0 -0 0 0 0 0 0 0 0 -0 -0 -0 -0 0 -0 -0 -0 -0 0 0 0 0 0 0 0 0 -0 0 -0 0 0 0 0 0 0 0 0 0
0 0 0 0 0 0 0 0 -0 -0 0 0 0 -0 -0 -0 0 0 0 0 -0 0 0 0 0 -0 -0 0 0 -0 0 0 0 0 0 0 0 0 -0 -0 0 0 0 0 0 0 0 0 0 0 0 0 0 0
0 0 0 0 0 0 0 0 0 0 0 0 0 0 0 0 0 0 -0 -0 0 0 0 -0 0 -0 0 0 0 0 -0 -0 -0 0 -0 -0 -0 -0 -0 -0 0 0 0 0 0 0 0 0 0 0 0 0 0 0
0 0 0 0 0 0 0 0 0 0 0 0 0 0 0 -0 0 -0 0 0 -0 0 -0 -0 0 0 0 0 0 0 0 0 0 0 0 0 -0 -0 0 -0 -0 0 0 0 0 0 0 0 0 0 0 0 0 0
0 0 0 0 0 0 0 0 -0 0 0 0 0 0 0 0 0 -0 0 0 0 0 0 0 0 0 0 0 0 0 0 0 0 0 -0 -0 -0 0 -0 -0 0 0 0 0 0 0 0 0 0 0 0 0 0 0
Wind_Speed_500mb
34 36 37 38 40 41 40 41 41 42 37 35 31 29 28 26 24 19 10 14 10 12 36 37 26 30 16 9 6 7 6 9 7 7 6 6 7 10 5 7 4 6 8 4 4 7 2 17 13 10 8 28 27 21
40 41 41 42 42 42 39 37 39 38 36 32 28 27 27 26 22 21 15 19 14 22 20 20 30 19 11 5 6 5 8 3 5 7 1 7 5 4 10 4 4 3 10 9 9 11 14 16 15 26 26 31 24 22
43 41 39 38 39 38 36 34 35 35 36 33 28 28 27 25 23 23 24 17 13 18 37 35 28 16 17 14 10 9 7 6 9 7 10 5 4 8 9 8 8 6 8 6 6 6 8 23 34 31 39 28 11 20
38 38 38 36 34 33 33 31 34 35 36 33 29 30 30 28 24 26 25 13 10 9 8 12 17 22 30 16 11 9 11 8 6 3 2 4 3 7 8 8 8 8 18 11 6 3 12 14 28 24 25 34 24 18
37 36 36 34 32 31 30 33 35 34 34 34 33 33 33 33 26 26 26 18 17 10 7 22 30 12 29 26 15 11 10 11 12 5 3 6 7 3 5 6 2 17 13 10 11 32 17 21 30 29 24 29 27 26
36 33 34 31 29 30 32 32 33 32 35 37 35 36 38 29 21 15 8 19 27 23 8 6 10 18 32 26 22 16 13 6 6 5 6 5 1 4 6 3 9 19 26 35 14 43 37 36 28 23 26 30 29 23
36 31 28 28 28 30 28 31 32 34 35 34 33 32 22 21 26 22 7 15 21 24 7 10 11 10 41 31 22 15 16 8 6 6 6 9 3 4 5 4 4 35 44 44 47 53 39 37 30 24 24 22 22 21
31 24 24 26 27 27 28 30 32 35 32 27 24 24 16 15 21 29 19 11 10 23 6 4 9 2 38 15 13 18 13 13 10 9 3 9 9 4 3 16 9 33 44 47 50 37 41 33 29 26 24 18 15 22
22 21 23 25 24 24 27 29 29 25 24 18 14 5 7 8 9 8 19 8 7 13 6 6 6 7 10 13 12 13 19 4 9 7 10 13 2 5 15 22 13 27 42 37 31 28 26 34 42 32 16 18 16 6
21 22 22 24 23 23 25 26 22 19 9 6 14 3 6 7 9 12 15 10 9 11 14 9 8 5 7 14 10 6 11 7 5 10 11 7 9 36 34 28 34 22 37 48 41 30 25 46 41 32 33 25 16 19
23 23 24 25 24 22 23 19 15 8 11 10 1 4 5 15 13 7 8 10 14 8 16 20 28 7 2 5 8 12 5 2 5 10 10 5 7 20 41 48 37 32 38 42 30 34 35 35 33 30 34 27 26 19
25 25 25 24 22 20 18 13 13 14 12 4 6 7 12 8 6 4 7 7 8 11 11 24 39 44 11 6 6 10 3 2 8 9 7 5 9 23 30 46 49 36 41 38 31 36 36 32 29 33 34 36 31 22
23 24 23 21 18 15 12 11 13 22 12 4 4 5 3 4 4 10 11 7 5 8 15 17 8 26 13 8 12 7 6 9 5 5 9 10 19 23 22 40 48 43 43 38 30 38 39 34 27 29 35 31 28 24
23 21 21 19 14 12 11 13 16 27 10 5 4 3 8 7 9 9 7 2 17 18 25 4 14 13 9 7 8 10 7 9 7 8 12 8 28 38 35 47 49 52 47 42 41 38 33 30 28 29 32 36 32 25
24 21 21 15 11 10 10 11 15 33 12 9 7 7 12 20 17 15 23 16 17 14 15 4 7 15 7 8 8 5 9 9 11 11 8 28 38 49 43 59 55 52 52 48 45 39 33 34 36 34 31 32 29 29
19 18 14 14 9 7 8 9 16 28 7 7 11 7 18 11 18 27 21 6 22 15 3 12 4 6 3 5 9 14 9 11 8 9 28 32 42 56 50 58 58 52 56 50 47 42 35 38 39 38 35 31 29 27
16 10 6 4 13 6 4 19 15 10 10 8 13 24 39 32 19 15 4 4 5 15 4 4 10 8 2 4 7 7 11 7 25 22 27 35 55 54 46 53 53 49 50 52 47 45 42 38 36 40 42 37 35 32
18 8 8 7 7 3 21 11 9 10 13 22 15 33 30 29 31 28 12 19 9 11 1 5 7 8 8 12 8 7 18 26 25 28 32 49 55 46 44 46 50 50 49 51 54 52 52 53 54 51 46 49 46 41
12 13 8 12 14 10 9 10 9 8 24 25 40 49 40 32 36 31 24 23 15 14 19 7 9 6 4 10 12 6 14 13 34 36 36 41 41 44 43 38 41 45 51 54 57 59 60 62 63 60 59 58 52 33
17 14 10 18 19 5 8 10 15 11 11 14 20 24 26 33 40 42 38 26 18 8 11 8 8 14 25 41 7 12 16 27 43 43 38 35 38 27 30 32 35 37 40 41 47 60 62 66 70 61 67 65 55 38
14 13 15 15 14 15 9 8 14 14 16 13 20 30 17 29 43 41 37 35 22 10 12 36 50 50 59 52 30 26 7 6 8 19 36 26 36 46 34 30 30 33 32 34 35 39 52 64 68 66 49 31 23 23
10 10 14 17 9 7 13 16 13 14 11 19 20 15 10 9 14 29 31 31 22 41 48 55 50 48 30 37 49 49 27 18 22 28 31 35 44 49 49 47 42 34 27 29 30 41 54 55 40 30 26 15 20 38
16 14 7 13 8 8 15 14 10 9 6 8 5 5 6 5 1 8 6 17 29 41 46 57 57 49 32 34 30 23 29 39 44 42 30 39 38 42 55 49 44 36 33 37 42 53 49 32 25 30 37 31 43 41
16 10 7 11 15 9 10 9 12 8 8 5 5 6 5 9 17 7 6 9 32 31 17 9 1 11 27 32 44 44 29 30 51 59 58 46 49 52 51 45 40 29 22 32 48 40 27 41 33 30 22 42 36 36
6 8 7 10 12 9 8 7 9 6 6 3 4 7 6 10 4 3 4 6 5 8 11 4 4 7 22 32 30 35 34 43 51 48 38 43 40 44 45 39 30 24 31 47 29 43 47 33 24 32 47 50 36 34
6 12 12 8 10 10 8 4 3 3 5 9 8 8 9 2 4 7 2 5 5 6 2 4 12 25 36 49 47 21 12 25 31 32 34 44 48 38 45 42 37 41 39 36 53 38 27 33 38 41 40 35 31 29
6 10 20 18 13 14 8 8 4 3 6 4 3 2 5 5 4 3 6 7 3 6 14 4 5 5 13 14 10 12 22 31 24 11 16 26 22 20 21 29 45 49 57 49 37 30 32 38 30 24 33 32 31 26
15 10 10 10 16 19 6 4 3 3 5 8 11 3 4 3 3 7 11 18 13 15 18 11 5 5 8 11 23 21 29 25 22 27 27 19 9 8 11 24 44 49 39 27 25 37 38 31 31 37 37 34 32 25
12 18 12 14 14 10 11 13 10 11 4 5 3 3 4 3 12 23 19 10 9 7 10 18 21 28 34 37 33 37 31 38 41 29 26 23 23 26 39 38 30 24 24 23 40 24 32 35 40 39 39 29 20 24
15 23 9 8 7 7 9 8 16 7 10 15 7 5 5 8 16 16 7 17 15 25 8 25 2 24 31 32 34 32 23 15 9 18 28 28 34 38 32 24 24 17 24 35 37 36 33 31 30 29 35 33 30 35
10 20 13 14 11 35 32 18 26 22 22 12 15 13 7 7 19 33 24 14 17 29 22 28 7 30 33 34 33 28 23 21 13 15 22 21 21 21 26 30 26 23 22 24 25 24 30 32 27 27 30 24 24 27
13 27 30 13 24 39 29 25 32 28 22 19 12 10 9 7 10 22 32 18 20 29 26 24 32 34 28 27 25 20 14 15 15 16 17 23 8 22 26 31 26 26 24 20 31 25 24 25 27 31 26 23 26 26
35 20 19 21 28 28 20 8 15 18 14 5 7 9 9 9 5 4 19 14 7 20 29 30 34 33 28 27 24 15 12 18 17 7 11 30 25 19 21 30 21 21 24 28 34 38 41 29 17 26 29 26 33 35
Wind_Direction_500mb
290 291 293 296 301 305 308 311 316 316 312 318 316 316 311 302 283 278 256 237 247 264 274 269 289 318 337 82 122 344 59 0 64 71 120 213 203 218 143 227 222 191 122 134 101 42 203 352 290 193 183 164 176 170
287 289 291 293 295 298 301 307 313 313 315 319 314 310 309 305 278 274 266 200 277 258 260 283 254 281 262 65 116 68 113 209 130 89 143 129 192 153 158 232 76 317 179 181 158 197 230 338 96 118 114 177 176 155
287 288 289 290 291 295 298 304 306 310 312 313 310 307 306 304 279 264 266 268 269 265 283 267 249 213 234 256 191 144 100 80 97 73 173 185 245 132 166 242 133 239 162 110 103 256 194 132 110 92 74 71 117 159
286 288 289 288 289 290 296 299 303 306 305 306 304 298 297 297 278 258 258 250 270 297 275 286 222 285 241 221 209 202 158 129 147 149 155 133 196 190 194 173 141 200 146 149 270 89 211 140 108 99 84 70 120 131
283 285 287 288 286 290 294 299 300 302 304 306 303 296 293 289 270 253 258 232 235 245 293 296 288 252 178 202 220 208 219 197 189 161 109 225 228 101 18 73 83 188 166 159 208 180 159 146 119 114 114 92 131 147
279 280 284 282 284 288 295 297 298 301 303 302 298 296 292 272 245 237 234 229 209 214 284 314 298 246 196 205 180 188 224 228 179 160 238 210 121 152 98 189 272 138 158 171 174 173 153 142 119 133 135 97 143 146
279 277 272 276 283 290 295 299 302 306 301 298 298 298 284 253 214 199 176 154 176 187 245 295 285 226 197 173 170 180 221 225 211 194 229 159 96 63 95 164 203 152 146 145 144 145 138 153 144 126 144 139 116 151
275 264 268 277 285 289 297 304 307 304 297 297 300 293 271 231 220 227 158 109 188 183 227 247 268 157 173 156 165 192 210 204 215 199 173 130 128 39 220 237 222 165 141 146 152 163 168 167 164 162 139 138 143 145
257 263 271 278 283 290 299 307 308 305 300 299 287 178 169 200 217 215 204 212 162 197 229 235 196 236 195 167 166 209 213 154 214 161 207 145 68 201 224 200 204 191 169 164 159 156 166 174 165 167 178 183 187 91
256 259 267 279 285 289 299 308 305 316 310 188 154 164 211 187 138 138 156 181 202 212 229 235 268 241 191 179 196 195 192 189 149 238 168 135 229 223 205 196 196 196 194 176 170 170 174 160 161 168 178 163 171 139
257 259 268 275 281 287 296 300 290 318 152 146 243 272 340 148 156 182 193 182 197 236 214 210 224 217 343 154 204 190 180 149 145 253 139 237 262 223 229 209 201 186 177 181 189 185 191 189 185 175 175 176 172 155
256 259 269 269 273 286 295 274 255 201 175 208 269 289 145 202 214 186 205 220 173 215 218 194 198 208 181 162 100 357 176 72 222 173 117 256 249 223 224 209 195 191 182 181 178 192 186 184 179 182 183 185 186 191
253 265 261 254 265 285 277 246 235 195 191 262 273 199 214 202 55 204 212 235 202 223 199 166 191 164 144 134 102 67 67 254 117 138 209 218 208 195 183 177 178 175 178 180 172 170 171 170 170 174 171 177 175 173
262 260 247 241 253 283 289 228 241 192 191 234 247 270 190 213 236 205 216 255 317 317 317 91 176 170 146 109 143 129 181 250 213 204 223 219 206 188 181 178 171 172 178 180 175 177 182 187 176 167 173 177 180 173
255 250 239 229 244 282 298 237 228 190 186 225 222 232 223 232 253 264 295 318 327 341 330 138 344 213 150 136 178 173 210 231 212 219 217 214 212 185 179 178 181 182 183 187 190 193 196 191 189 181 179 181 186 181
231 241 236 215 227 279 297 227 200 179 229 237 231 263 258 279 260 265 275 350 350 335 81 78 315 339 183 138 191 197 201 196 241 220 236 229 199 184 185 185 191 194 192 192 197 203 202 198 197 198 197 198 201 214
211 189 189 250 223 272 269 155 156 203 222 238 247 245 262 281 278 294 170 345 52 23 349 109 211 205 91 61 329 230 181 210 248 286 241 224 186 182 188 192 197 199 197 199 205 209 216 213 205 202 205 209 211 207
180 178 250 239 200 244 168 168 197 219 239 239 239 249 243 249 262 265 230 199 134 157 259 302 317 207 192 180 215 265 314 239 241 244 202 183 177 177 183 192 202 207 206 206 212 218 219 212 209 210 209 204 198 198
200 198 224 183 175 150 183 206 223 253 240 246 254 253 249 259 253 251 263 202 165 156 142 220 250 222 229 15 328 303 307 174 149 161 167 170 173 179 190 204 215 218 221 222 222 222 224 222 218 210 206 199 191 179
192 182 197 189 189 231 228 209 204 247 256 236 247 248 226 237 242 237 239 217 217 196 190 203 227 184 182 208 237 1 57 117 134 128 127 146 165 183 201 208 217 224 227 225 226 226 224 216 211 206 197 189 183 175
204 223 211 194 207 232 262 245 220 235 264 249 292 238 231 244 230 228 219 204 204 227 219 227 238 245 246 230 242 252 327 231 185 187 185 199 210 245 237 229 223 221 224 229 231 222 216 207 191 181 177 178 178 181
170 186 191 188 227 241 259 238 241 293 255 258 275 231 231 210 200 206 209 192 208 222 232 245 255 255 244 227 233 232 269 294 257 239 243 230 232 234 226 216 211 213 224 233 226 204 181 167 160 162 167 187 145 168
174 188 191 200 221 241 262 238 237 239 244 269 307 207 238 205 67 306 236 227 228 232 243 253 258 259 256 220 201 209 227 245 261 246 240 247 232 233 214 213 213 213 203 194 194 183 171 179 209 163 149 170 175 177
165 184 220 201 209 261 271 241 218 248 254 254 266 275 285 156 167 210 243 259 250 256 260 197 184 240 222 219 211 210 214 236 259 258 257 259 235 220 208 212 206 211 215 190 177 178 189 165 159 181 189 175 178 182
187 219 210 239 215 239 245 237 204 208 246 276 326 279 262 167 171 230 232 273 340 200 145 108 303 204 175 180 188 213 241 248 255 257 265 224 225 205 195 194 197 201 184 172 175 167 164 173 185 182 186 191 187 191
209 206 196 233 216 205 234 271 342 280 246 200 237 267 355 122 200 249 210 360 37 17 16 213 234 208 188 195 199 219 167 174 235 234 234 221 215 213 196 193 185 172 168 165 157 159 162 176 177 173 182 185 184 194
236 237 223 233 259 297 296 0 347 318 270 259 315 6 29 329 271 340 360 13 264 25 16 296 258 240 258 238 201 178 173 198 207 212 183 178 197 218 230 214 187 169 156 157 166 179 180 177 188 206 193 194 199 196
236 258 220 258 233 253 255 247 241 253 296 348 338 237 234 239 277 1 359 335 305 326 14 191 269 267 221 186 182 175 164 170 156 156 158 158 156 159 160 158 156 157 162 164 168 178 184 202 198 188 192 200 209 223
237 237 259 256 271 261 224 203 203 199 250 232 234 275 297 275 295 312 315 327 305 272 89 123 122 122 127 134 144 153 156 172 170 170 159 146 150 148 144 145 148 160 179 187 190 211 198 201 204 206 208 207 207 202
239 222 235 236 200 232 235 197 147 148 237 230 237 269 342 351 5 37 90 59 52 73 151 185 267 155 148 153 157 161 164 159 132 151 149 152 153 148 150 152 156 145 160 167 173 175 181 190 206 199 203 207 214 206
246 180 206 236 239 251 265 265 200 206 248 238 229 241 294 16 50 45 32 32 88 116 139 170 145 170 158 156 155 152 151 167 161 148 149 152 162 176 172 162 169 186 186 189 194 200 199 197 195 194 194 224 219 222
231 232 231 237 251 258 264 233 210 203 222 212 205 192 175 89 44 43 51 85 131 140 148 167 156 146 158 158 158 148 124 166 160 165 164 168 145 178 189 189 202 195 199 229 231 210 210 199 227 228 214 220 237 213
226 251 273 245 237 250 254 206 201 209 197 141 66 134 146 130 155 149 80 62 104 115 127 128 132 141 139 130 130 129 130 108 76 93 184 186 166 167 175 151 155 174 184 192 204 220 220 223 236 228 239 232 215 234
Wind_Speed_850mb
34 36 37 38 40 41 40 41 41 42 37 35 31 29 28 26 24 19 10 14 10 12 36 37 26 30 16 9 6 7 6 9 7 7 6 6 7 10 5 7 4 6 8 4 4 7 2 17 13 10 8 28 27 21
40 41 41 42 42 42 39 37 39 38 36 32 28 27 27 26 22 21 15 19 14 22 20 20 30 19 11 5 6 5 8 3 5 7 1 7 5 4 10 4 4 3 10 9 9 11 14 16 15 26 26 31 24 22
43 41 39 38 39 38 36 34 35 35 36 33 28 28 27 25 23 23 24 17 13 18 37 35 28 16 17 14 10 9 7 6 9 7 10 5 4 8 9 8 8 6 8 6 6 6 8 23 34 31 39 28 11 20
38 38 38 36 34 33 33 31 34 35 36 33 29 30 30 28 24 26 25 13 10 9 8 12 17 22 30 16 11 9 11 8 6 3 2 4 3 7 8 8 8 8 18 11 6 3 12 14 28 24 25 34 24 18
37 36 36 34 32 31 30 33 35 34 34 34 33 33 33 33 26 26 26 18 17 10 7 22 30 12 29 26 15 11 10 11 12 5 3 6 7 3 5 6 2 17 13 10 11 32 17 21 30 29 24 29 27 26
36 33 34 31 29 30 32 32 33 32 35 37 35 36 38 29 21 15 8 19 27 23 8 6 10 18 32 26 22 16 13 6 6 5 6 5 1 4 6 3 9 19 26 35 14 43 37 36 28 23 26 30 29 23
36 31 28 28 28 30 28 31 32 34 35 34 33 32 22 21 26 22 7 15 21 24 7 10 11 10 41 31 22 15 16 8 6 6 6 9 3 4 5 4 4 35 44 44 47 53 39 37 30 24 24 22 22 21
31 24 24 26 27 27 28 30 32 35 32 27 24 24 16 15 21 29 19 11 10 23 6 4 9 2 38 15 13 18 13 13 10 9 3 9 9 4 3 16 9 33 44 47 50 37 41 33 29 26 24 18 15 22
22 21 23 25 24 24 27 29 29 25 24 18 14 5 7 8 9 8 19 8 7 13 6 6 6 7 10 13 12 13 19 4 9 7 10 13 2 5 15 22 13 27 42 37 31 28 26 34 42 32 16 18 16 6
21 22 22 24 23 23 25 26 22 19 9 6 14 3 6 7 9 12 15 10 9 11 14 9 8 5 7 14 10 6 11 7 5 10 11 7 9 36 34 28 34 22 37 48 41 30 25 46 41 32 33 25 16 19
23 23 24 25 24 22 23 19 15 8 11 10 1 4 5 15 13 7 8 10 14 8 16 20 28 7 2 5 8 12 5 2 5 10 10 5 7 20 41 48 37 32 38 42 30 34 35 35 33 30 34 27 26 19
25 25 25 24 22 20 18 13 13 14 12 4 6 7 12 8 6 4 7 7 8 11 11 24 39 44 11 6 6 10 3 2 8 9 7 5 9 23 30 46 49 36 41 38 31 36 36 32 29 33 34 36 31 22
23 24 23 21 18 15 12 11 13 22 12 4 4 5 3 4 4 10 11 7 5 8 15 17 8 26 13 8 12 7 6 9 5 5 9 10 19 23 22 40 48 43 43 38 30 38 39 34 27 29 35 31 28 24
23 21 21 19 14 12 11 13 16 27 10 5 4 3 8 7 9 9 7 2 17 18 25 4 14 13 9 7 8 10 7 9 7 8 12 8 28 38 35 47 49 52 47 42 41 38 33 30 28 29 32 36 32 25
24 21 21 15 11 10 10 11 15 33 12 9 7 7 12 20 17 15 23 16 17 14 15 4 7 15 7 8 8 5 9 9 11 11 8 28 38 49 43 59 55 52 52 48 45 39 33 34 36 34 31 32 29 29
19 18 14 14 9 7 8 9 16 28 7 7 11 7 18 11 18 27 21 6 22 15 3 12 4 6 3 5 9 14 9 11 8 9 28 32 42 56 50 58 58 52 56 50 47 42 35 38 39 38 35 31 29 27
16 10 6 4 13 6 4 19 15 10 10 8 13 24 39 32 19 15 4 4 5 15 4 4 10 8 2 4 7 7 11 7 25 22 27 35 55 54 46 53 53 49 50 52 47 45 42 38 36 40 42 37 35 32
18 8 8 7 7 3 21 11 9 10 13 22 15 33 30 29 31 28 12 19 9 11 1 5 7 8 8 12 8 7 18 26 25 28 32 49 55 46 44 46 50 50 49 51 54 52 52 53 54 51 46 49 46 41
12 13 8 12 14 10 9 10 9 8 24 25 40 49 40 32 36 31 24 23 15 14 19 7 9 6 4 10 12 6 14 13 34 36 36 41 41 44 43 38 41 45 51 54 57 59 60 62 63 60 59 58 52 33
17 14 10 18 19 5 8 10 15 11 11 14 20 24 26 33 40 42 38 26 18 8 11 8 8 14 25 41 7 12 16 27 43 43 38 35 38 27 30 32 35 37 40 41 47 60 62 66 70 61 67 65 55 38
14 13 15 15 14 15 9 8 14 14 16 13 20 30 17 29 43 41 37 35 22 10 12 36 50 50 59 52 30 26 7 6 8 19 36 26 36 46 34 30 30 33 32 34 35 39 52 64 68 66 49 31 23 23
10 10 14 17 9 7 13 16 13 14 11 19 20 15 10 9 14 29 31 31 22 41 48 55 50 48 30 37 49 49 27 18 22 28 31 35 44 49 49 47 42 34 27 29 30 41 54 55 40 30 26 15 20 38
16 14 7 13 8 8 15 14 10 9 6 8 5 5 6 5 1 8 6 17 29 41 46 57 57 49 32 34 30 23 29 39 44 42 30 39 38 42 55 49 44 36 33 37 42 53 49 32 25 30 37 31 43 41
16 10 7 11 15 9 10 9 12 8 8 5 5 6 5 9 17 7 6 9 32 31 17 9 1 11 27 32 44 44 29 30 51 59 58 46 49 52 51 45 40 29 22 32 48 40 27 41 33 30 22 42 36 36
6 8 7 10 12 9 8 7 9 6 6 3 4 7 6 10 4 3 4 6 5 8 11 4 4 7 22 32 30 35 34 43 51 48 38 43 40 44 45 39 30 24 31 47 29 43 47 33 24 32 47 50 36 34
6 12 12 8 10 10 8 4 3 3 5 9 8 8 9 2 4 7 2 5 5 6 2 4 12 25 36 49 47 21 12 25 31 32 34 44 48 38 45 42 37 41 39 36 53 38 27 33 38 41 40 35 31 29
6 10 20 18 13 14 8 8 4 3 6 4 3 2 5 5 4 3 6 7 3 6 14 4 5 5 13 14 10 12 22 31 24 11 16 26 22 20 21 29 45 49 57 49 37 30 32 38 30 24 33 32 31 26
15 10 10 10 16 19 6 4 3 3 5 8 11 3 4 3 3 7 11 18 13 15 18 11 5 5 8 11 23 21 29 25 22 27 27 19 9 8 11 24 44 49 39 27 25 37 38 31 31 37 37 34 32 25
12 18 12 14 14 10 11 13 10 11 4 5 3 3 4 3 12 23 19 10 9 7 10 18 21 28 34 37 33 37 31 38 41 29 26 23 23 26 39 38 30 24 24 23 40 24 32 35 40 39 39 29 20 24
15 23 9 8 7 7 9 8 16 7 10 15 7 5 5 8 16 16 7 17 15 25 8 25 2 24 31 32 34 32 23 15 9 18 28 28 34 38 32 24 24 17 24 35 37 36 33 31 30 29 35 33 30 35
10 20 13 14 11 35 32 18 26 22 22 12 15 13 7 7 19 33 24 14 17 29 22 28 7 30 33 34 33 28 23 21 13 15 22 21 21 21 26 30 26 23 22 24 25 24 30 32 27 27 30 24 24 27
13 27 30 13 24 39 29 25 32 28 22 19 12 10 9 7 10 22 32 18 20 29 26 24 32 34 28 27 25 20 14 15 15 16 17 23 8 22 26 31 26 26 24 20 31 25 24 25 27 31 26 23 26 26
35 20 19 21 28 28 20 8 15 18 14 5 7 9 9 9 5 4 19 14 7 20 29 30 34 33 28 27 24 15 12 18 17 7 11 30 25 19 21 30 21 21 24 28 34 38 41 29 17 26 29 26 33 35
Wind_Direction_850mb
290 291 293 296 301 305 308 311 316 316 312 318 316 316 311 302 283 278 256 237 247 264 274 269 289 318 337 82 122 344 59 0 64 71 120 213 203 218 143 227 222 191 122 134 101 42 203 352 290 193 183 164 176 170
287 289 291 293 295 298 301 307 313 313 315 319 314 310 309 305 278 274 266 200 277 258 260 283 254 281 262 65 116 68 113 209 130 89 143 129 192 153 158 232 76 317 179 181 158 197 230 338 96 118 114 177 176 155
287 288 289 290 291 295 298 304 306 310 312 313 310 307 306 304 279 264 266 268 269 265 283 267 249 213 234 256 191 144 100 80 97 73 173 185 245 132 166 242 133 239 162 110 103 256 194 132 110 92 74 71 117 159
286 288 289 288 289 290 296 299 303 306 305 306 304 298 297 297 278 258 258 250 270 297 275 286 222 285 241 221 209 202 158 129 147 149 155 133 196 190 194 173 141 200 146 149 270 89 211 140 108 99 84 70 120 131
283 285 287 288 286 290 294 299 300 302 304 306 303 296 293 289 270 253 258 232 235 245 293 296 288 252 178 202 220 208 219 197 189 161 109 225 228 101 18 73 83 188 166 159 208 180 159 146 119 114 114 92 131 147
279 280 284 282 284 288 295 297 298 301 303 302 298 296 292 272 245 237 234 229 209 214 284 314 298 246 196 205 180 188 224 228 179 160 238 210 121 152 98 189 272 138 158 171 174 173 153 142 119 133 135 97 143 146
279 277 272 276 283 290 295 299 302 306 301 298 298 298 284 253 214 199 176 154 176 187 245 295 285 226 197 173 170 180 221 225 211 194 229 159 96 63 95 164 203 152 146 145 144 145 138 153 144 126 144 139 116 151
275 264 268 277 285 289 297 304 307 304 297 297 300 293 271 231 220 227 158 109 188 183 227 247 268 157 173 156 165 192 210 204 215 199 173 130 128 39 220 237 222 165 141 146 152 163 168 167 164 162 139 138 143 145
257 263 271 278 283 290 299 307 308 305 300 299 287 178 169 200 217 215 204 212 162 197 229 235 196 236 195 167 166 209 213 154 214 161 207 145 68 201 224 200 204 191 169 164 159 156 166 174 165 167 178 183 187 91
256 259 267 279 285 289 299 308 305 316 310 188 154 164 211 187 138 138 156 181 202 212 229 235 268 241 191 179 196 195 192 189 149 238 168 135 229 223 205 196 196 196 194 176 170 170 174 160 161 168 178 163 171 139
257 259 268 275 281 287 296 300 290 318 152 146 243 272 340 148 156 182 193 182 197 236 214 210 224 217 343 154 204 190 180 149 145 253 139 237 262 223 229 209 201 186 177 181 189 185 191 189 185 175 175 176 172 155
256 259 269 269 273 286 295 274 255 201 175 208 269 289 145 202 214 186 205 220 173 215 218 194 198 208 181 162 100 357 176 72 222 173 117 256 249 223 224 209 195 191 182 181 178 192 186 184 179 182 183 185 186 191
253 265 261 254 265 285 277 246 235 195 191 262 273 199 214 202 55 204 212 235 202 223 199 166 191 164 144 134 102 67 67 254 117 138 209 218 208 195 183 177 178 175 178 180 172 170 171 170 170 174 171 177 175 173
262 260 247 241 253 283 289 228 241 192 191 234 247 270 190 213 236 205 216 255 317 317 317 91 176 170 146 109 143 129 181 250 213 204 223 219 206 188 181 178 171 172 178 180 175 177 182 187 176 167 173 177 180 173
255 250 239 229 244 282 298 237 228 190 186 225 222 232 223 232 253 264 295 318 327 341 330 138 344 213 150 136 178 173 210 231 212 219 217 214 212 185 179 178 181 182 183 187 190 193 196 191 189 181 179 181 186 181
231 241 236 215 227 279 297 227 200 179 229 237 231 263 258 279 260 265 275 350 350 335 81 78 315 339 183 138 191 197 201 196 241 220 236 229 199 184 185 185 191 194 192 192 197 203 202 198 197 198 197 198 201 214
211 189 189 250 223 272 269 155 156 203 222 238 247 245 262 281 278 294 170 345 52 23 349 109 211 205 91 61 329 230 181 210 248 286 241 224 186 182 188 192 197 199 197 199 205 209 216 213 205 202 205 209 211 207
180 178 250 239 200 244 168 168 197 219 239 239 239 249 243 249 262 265 230 199 134 157 259 302 317 207 192 180 215 265 314 239 241 244 202 183 177 177 183 192 202 207 206 206 212 218 219 212 209 210 209 204 198 198
200 198 224 183 175 150 183 206 223 253 240 246 254 253 249 259 253 251 263 202 165 156 142 220 250 222 229 15 328 303 307 174 149 161 167 170 173 179 190 204 215 218 221 222 222 222 224 222 218 210 206 199 191 179
192 182 197 189 189 231 228 209 204 247 256 236 247 248 226 237 242 237 239 217 217 196 190 203 227 184 182 208 237 1 57 117 134 128 127 146 165 183 201 208 217 224 227 225 226 226 224 216 211 206 197 189 183 175
204 223 211 194 207 232 262 245 220 235 264 249 292 238 231 244 230 228 219 204 204 227 219 227 238 245 246 230 242 252 327 231 185 187 185 199 210 245 237 229 223 221 224 229 231 222 216 207 191 181 177 178 178 181
170 186 191 188 227 241 259 238 241 293 255 258 275 231 231 210 200 206 209 192 208 222 232 245 255 255 244 227 233 232 269 294 257 239 243 230 232 234 226 216 211 213 224 233 226 204 181 167 160 162 167 187 145 168
174 188 191 200 221 241 262 238 237 239 244 269 307 207 238 205 67 306 236 227 228 232 243 253 258 259 256 220 201 209 227 245 261 246 240 247 232 233 214 213 213 213 203 194 194 183 171 179 209 163 149 170 175 177
165 184 220 201 209 261 271 241 218 248 254 254 266 275 285 156 167 210 243 259 250 256 260 197 184 240 222 219 211 210 214 236 259 258 257 259 235 220 208 212 206 211 215 190 177 178 189 165 159 181 189 175 178 182
187 219 210 239 215 239 245 237 204 208 246 276 326 279 262 167 171 230 232 273 340 200 145 108 303 204 175 180 188 213 241 248 255 257 265 224 225 205 195 194 197 201 184 172 175 167 164 173 185 182 186 191 187 191
209 206 196 233 216 205 234 271 342 280 246 200 237 267 355 122 200 249 210 360 37 17 16 213 234 208 188 195 199 219 167 174 235 234 234 221 215 213 196 193 185 172 168 165 157 159 162 176 177 173 182 185 184 194
236 237 223 233 259 297 296 0 347 318 270 259 315 6 29 329 271 340 360 13 264 25 16 296 258 240 258 238 201 178 173 198 207 212 183 178 197 218 230 214 187 169 156 157 166 179 180 177 188 206 193 194 199 196
236 258 220 258 233 253 255 247 241 253 296 348 338 237 234 239 277 1 359 335 305 326 14 191 269 267 221 186 182 175 164 170 156 156 158 158 156 159 160 158 156 157 162 164 168 178 184 202 198 188 192 200 209 223
237 237 259 256 271 261 224 203 203 199 250 232 234 275 297 275 295 312 315 327 305 272 89 123 122 122 127 134 144 153 156 172 170 170 159 146 150 148 144 145 148 160 179 187 190 211 198 201 204 206 208 207 207 202
239 222 235 236 200 232 235 197 147 148 237 230 237 269 342 351 5 37 90 59 52 73 151 185 267 155 148 153 157 161 164 159 132 151 149 152 153 148 150 152 156 145 160 167 173 175 181 190 206 199 203 207 214 206
246 180 206 236 239 251 265 265 200 206 248 238 229 241 294 16 50 45 32 32 88 116 139 170 145 170 158 156 155 152 151 167 161 148 149 152 162 176 172 162 169 186 186 189 194 200 199 197 195 194 194 224 219 222
231 232 231 237 251 258 264 233 210 203 222 212 205 192 175 89 44 43 51 85 131 140 148 167 156 146 158 158 158 148 124 166 160 165 164 168 145 178 189 189 202 195 199 229 231 210 210 199 227 228 214 220 237 213
226 251 273 245 237 250 254 206 201 209 197 141 66 134 146 130 155 149 80 62 104 115 127 128 132 141 139 130 130 129 130 108 76 93 184 186 166 167 175 151 155 174 184 192 204 220 220 223 236 228 239 232 215 234